Beaufort, NC

11:01 AM EDT on September 19, 2019 (GMT -0400)
Smith

Weather History for KMRH - June, 2019

Change the Weather History Date:

Sunday, June 2, 2019

  Actual Average Record
Temperature  
Mean Temperature 73 °F -  
Max Temperature 82 °F 82 °F 91 °F (2011)
Min Temperature 64 °F 65 °F 50 °F (1972)
Cooling Degree Days 8    
Growing Degree Days 23 (Base 50)    
Moisture  
Dew Point 66 °F    
Average Humidity 80    
Maximum Humidity 96    
Minimum Humidity 54    
Precipitation  
Precipitation 0.00 in - - ()
Sea Level Pressure  
Sea Level Pressure 29.84 in    
Wind  
Wind Speed 3 mph (SSW)    
Max Wind Speed 14 mph    
Max Gust Speed -    
Visibility 8 miles    
Events      
Averages and records for this station are not official NWS values.
T = Trace of Precipitation, MM = Missing Value Source: NWS Daily Summary

Daily Weather History Graph

Daily Weather History Graph

Search for Another Location

Airport or City:

Astronomy

Jun. 02, 2019 Rise Set
Actual Time 5:54 AM EDT 8:15 PM EDT
Civil Twilight 5:25 AM EDT 8:44 PM EDT
Nautical Twilight 4:49 AM EDT 9:20 PM EDT
Astronomical Twilight 4:10 AM EDT 9:59 PM EDT
Moon 5:28 AM EDT (6/2) 7:35 PM EDT (6/2)
Length of Visible Light 15h 19m
Length of Day
14h 20m
Waning Crescent, 1% of the Moon is Illuminated
Jun 2
Waning Crescent
Jun 3
New
Jun 10
First Quarter
Jun 17
Full
Jun 25
Last Quarter

Hourly Weather History & Observations

Time (EDT) Temp. Heat Index Dew Point Humidity Pressure Visibility Wind Dir Wind Speed Gust Speed Precip Events Conditions
12:58 AM 69.1 °F - 66.9 °F 93% 29.85 in 7.0 mi Calm Calm - N/A   Clear
1:11 AM 68.0 °F - 66.0 °F 93% 29.85 in 1.8 mi Calm Calm - N/A   Clear
1:18 AM 68.0 °F - 66.0 °F 93% 29.85 in 3.0 mi Calm Calm - N/A   Clear
1:58 AM 70.0 °F - 66.9 °F 90% 29.84 in 10.0 mi NW 5.8 mph - N/A   Clear
2:58 AM 69.1 °F - 66.0 °F 90% 29.83 in 10.0 mi West 3.5 mph - N/A   Clear
3:55 AM 66.2 °F - 64.4 °F 94% 29.82 in 1.8 mi Calm Calm - N/A   Clear
3:58 AM 66.0 °F - 64.0 °F 93% 29.83 in 1.5 mi Calm Calm - N/A   Clear
4:04 AM 66.0 °F - 64.0 °F 93% 29.82 in 3.0 mi Calm Calm - N/A   Clear
4:23 AM 64.0 °F - 63.0 °F 96% 29.82 in 1.5 mi Calm Calm - N/A   Clear
4:31 AM 66.0 °F - 63.0 °F 90% 29.82 in 1.0 mi Calm Calm - N/A   Clear
4:34 AM 66.0 °F - 63.0 °F 90% 29.82 in 2.5 mi Calm Calm - N/A   Clear
4:41 AM 66.0 °F - 63.0 °F 90% 29.82 in 9.0 mi Calm Calm - N/A   Clear
4:58 AM 64.9 °F - 63.0 °F 93% 29.82 in 3.0 mi Calm Calm - N/A   Clear
5:11 AM 64.9 °F - 63.0 °F 93% 29.82 in 1.5 mi Calm Calm - N/A   Clear
5:27 AM 66.9 °F - 64.0 °F 90% 29.82 in 10.0 mi Calm Calm - N/A   Clear
5:58 AM 66.9 °F - 64.0 °F 90% 29.83 in 10.0 mi Calm Calm - N/A   Clear
6:58 AM 68.0 °F - 66.0 °F 93% 29.85 in 10.0 mi Calm Calm - N/A   Clear
7:58 AM 75.0 °F - 71.1 °F 87% 29.86 in 10.0 mi SSW 3.5 mph - N/A   Clear
8:58 AM 78.1 °F - 66.9 °F 68% 29.87 in 10.0 mi SW 10.4 mph - N/A   Clear
9:58 AM 79.0 °F - 66.0 °F 64% 29.88 in 10.0 mi SSW 10.4 mph - N/A   Clear
10:58 AM 80.1 °F 82.7 °F 68.0 °F 67% 29.89 in 10.0 mi SSW 10.4 mph - N/A   Clear
11:58 AM 80.1 °F 82.3 °F 66.9 °F 64% 29.88 in 10.0 mi SSW 6.9 mph - N/A   Clear
12:58 PM 82.0 °F 84.5 °F 66.9 °F 60% 29.87 in 10.0 mi South 8.1 mph - N/A   Clear
1:58 PM 82.0 °F 84.5 °F 66.9 °F 60% 29.86 in 10.0 mi SSW 9.2 mph - N/A   Clear
2:58 PM 82.0 °F 83.8 °F 64.9 °F 56% 29.83 in 10.0 mi SSE 6.9 mph - N/A   Clear
3:58 PM 81.0 °F 82.2 °F 63.0 °F 54% 29.82 in 10.0 mi South 9.2 mph - N/A   Clear
4:58 PM 82.0 °F 84.1 °F 66.0 °F 58% 29.82 in 10.0 mi South 13.8 mph - N/A   Clear
5:58 PM 82.0 °F 84.9 °F 68.0 °F 62% 29.81 in 10.0 mi South 12.7 mph - N/A   Clear
6:58 PM 81.0 °F 84.1 °F 69.1 °F 67% 29.82 in 10.0 mi South 11.5 mph - N/A   Clear
7:58 PM 79.0 °F - 71.1 °F 77% 29.83 in 10.0 mi South 8.1 mph - N/A   Clear
8:58 PM 79.0 °F - 72.0 °F 79% 29.85 in 10.0 mi South 5.8 mph - N/A   Clear
9:58 PM 79.0 °F - 73.0 °F 82% 29.86 in 10.0 mi South 9.2 mph - N/A   Clear
10:58 PM 79.0 °F - 72.0 °F 79% 29.86 in 10.0 mi South 11.5 mph - N/A   Clear
11:58 PM 79.0 °F - 73.0 °F 82% 29.85 in 10.0 mi South 6.9 mph - N/A   Clear